LU3MCV-13 Weather Reports


time (UTC)temp
C
wind
direction
speed
KPH
gust
KPH
rain 1hr
cm
rain 24hr
cm
rain mn
cm
humidity
%
barometer
mb
20260507065818 15 0 0.0 0.0 0.00 0.00 0.00 8 930.3
20260507064319 15 0 0.0 0.0 0.00 0.00 0.00 5 930.4
20260507062819 16 0 0.0 0.0 0.00 0.00 0.00 5 930.5
20260507061319 16 0 0.0 0.0 0.00 0.00 0.00 8 930.7
20260507055819 16 0 0.0 0.0 0.00 0.00 0.00 8 930.7
20260507054319 17 0 0.0 0.0 0.00 0.00 0.00 5 930.2
20260507052819 16 0 0.0 0.0 0.00 0.00 0.00 5 929.8
20260507051318 16 0 0.0 0.0 0.00 0.00 0.00 8 929.4
20260507045818 16 0 0.0 0.0 0.00 0.00 0.00 8 929.0
20260507044319 17 0 0.0 0.0 0.00 0.00 0.00 5 929.1
20260507042818 17 0 0.0 0.0 0.00 0.00 0.00 5 928.3
20260507041319 17 0 0.0 0.0 0.00 0.00 0.00 5 927.9
20260507035819 17 0 0.0 0.0 0.00 0.00 0.00 5 927.8
20260507034319 17 0 0.0 0.0 0.00 0.00 0.00 5 927.2
20260507032819 17 0 0.0 0.0 0.00 0.00 0.00 8 927.3
20260507031318 17 0 0.0 0.0 0.00 0.00 0.00 8 927.4
20260507025818 17 0 0.0 0.0 0.00 0.00 0.00 13 927.2
20260507024318 17 0 0.0 0.0 0.00 0.00 0.00 13 927.3
20260507022819 17 0 0.0 0.0 0.00 0.00 0.00 13 927.1
20260507021318 17 0 0.0 0.0 0.00 0.00 0.00 13 927.4
20260507015818 16 0 0.0 0.0 0.00 0.00 0.00 13 927.5
20260507014318 16 0 0.0 0.0 0.00 0.00 0.00 13 927.1
20260507012818 17 0 0.0 0.0 0.00 0.00 0.00 13 927.2
20260507011318 17 0 0.0 0.0 0.00 0.00 0.00 13 926.9
20260507005819 17 0 0.0 0.0 0.00 0.00 0.00 13 926.7
20260507004319 17 0 0.0 0.0 0.00 0.00 0.00 10 926.3
20260507002818 17 0 0.0 0.0 0.00 0.00 0.00 13 926.6
20260507001318 17 0 0.0 0.0 0.00 0.00 0.00 13 926.4
20260506235818 17 0 0.0 0.0 0.00 0.00 0.00 13 926.4
20260506234318 17 0 0.0 0.0 0.00 0.00 0.00 13 926.5
20260506232818 17 0 0.0 0.0 0.00 0.00 0.00 10 926.8
20260506231318 17 0 0.0 0.0 0.00 0.00 0.00 10 926.7
20260506225818 17 0 0.0 0.0 0.00 0.00 0.00 13 927.0
20260506224319 17 0 0.0 0.0 0.00 0.00 0.00 13 926.8
20260506222818 18 0 0.0 0.0 0.00 0.00 0.00 13 926.3
20260506221318 18 0 0.0 0.0 0.00 0.00 0.00 13 926.3
20260506215817 18 0 0.0 0.0 0.00 0.00 0.00 13 925.8
20260506214318 18 0 0.0 0.0 0.00 0.00 0.00 13 926.0
20260506212818 20 0 0.0 0.0 0.00 0.00 0.00 11 925.7
20260506211318 20 0 0.0 0.0 0.00 0.00 0.00 11 926.0
20260506205818 20 0 0.0 0.0 0.00 0.00 0.00 10 926.1
20260506204318 21 0 0.0 0.0 0.00 0.00 0.00 10 925.8
20260506202818 21 0 0.0 0.0 0.00 0.00 0.00 10 925.1
20260506201318 21 0 0.0 0.0 0.00 0.00 0.00 8 924.2
20260506195818 22 0 0.0 0.0 0.00 0.00 0.00 8 924.4
20260506194318 22 0 0.0 0.0 0.00 0.00 0.00 8 924.9
20260506194310 22 0 0.0 0.0 0.00 0.00 0.00 10 924.9
20260506192810 22 0 0.0 0.0 0.00 0.00 0.00 8 924.8
20260506191310 22 0 0.0 0.0 0.00 0.00 0.00 8 924.7
20260506185810 22 0 0.0 0.0 0.00 0.00 0.00 8 924.9
20260506184310 23 0 0.0 0.0 0.00 0.00 0.00 8 924.3
20260506182810 23 0 0.0 0.0 0.00 0.00 0.00 8 924.0
20260506181310 23 0 0.0 0.0 0.00 0.00 0.00 8 923.1
20260506175810 23 0 0.0 0.0 0.00 0.00 0.00 12 923.8
20260506174310 23 0 0.0 0.0 0.00 0.00 0.00 20 923.9
20260506172810 23 0 0.0 0.0 0.00 0.00 0.00 20 924.0
20260506171310 23 0 0.0 0.0 0.00 0.00 0.00 20 923.6
20260506165810 23 0 0.0 0.0 0.00 0.00 0.00 19 923.5
20260506164310 23 0 0.0 0.0 0.00 0.00 0.00 20 923.4
20260506162810 23 0 0.0 0.0 0.00 0.00 0.00 20 923.6
20260506161309 22 0 0.0 0.0 0.00 0.00 0.00 22 923.7
20260506155809 22 0 0.0 0.0 0.00 0.00 0.00 23 923.7
20260506154309 22 0 0.0 0.0 0.00 0.00 0.00 24 924.0
20260506152810 22 0 0.0 0.0 0.00 0.00 0.00 25 924.5
20260506151310 21 0 0.0 0.0 0.00 0.00 0.00 25 925.1
20260506145810 21 0 0.0 0.0 0.00 0.00 0.00 25 925.3
20260506144309 20 0 0.0 0.0 0.00 0.00 0.00 25 925.6
20260506142810 20 0 0.0 0.0 0.00 0.00 0.00 26 925.7
20260506141310 18 0 0.0 0.0 0.00 0.00 0.00 28 925.8
20260506135809 18 0 0.0 0.0 0.00 0.00 0.00 30 926.1
20260506134309 17 0 0.0 0.0 0.00 0.00 0.00 31 926.0
20260506132810 17 0 0.0 0.0 0.00 0.00 0.00 32 926.0
20260506131310 17 0 0.0 0.0 0.00 0.00 0.00 32 926.3
20260506125809 17 0 0.0 0.0 0.00 0.00 0.00 33 926.0
20260506124310 17 0 0.0 0.0 0.00 0.00 0.00 34 926.3
20260506122809 16 0 0.0 0.0 0.00 0.00 0.00 35 926.4
20260506121309 15 0 0.0 0.0 0.00 0.00 0.00 35 926.5
20260506115809 13 0 0.0 0.0 0.00 0.00 0.00 38 926.5
20260506114309 13 0 0.0 0.0 0.00 0.00 0.00 39 926.5
20260506112810 13 0 0.0 0.0 0.00 0.00 0.00 39 926.2
20260506111309 12 0 0.0 0.0 0.00 0.00 0.00 39 926.2
20260506105810 13 0 0.0 0.0 0.00 0.00 0.00 37 926.3
20260506104309 13 0 0.0 0.0 0.00 0.00 0.00 37 926.1
20260506102810 13 0 0.0 0.0 0.00 0.00 0.00 37 926.4
20260506101310 13 0 0.0 0.0 0.00 0.00 0.00 37 926.4
20260506095809 13 0 0.0 0.0 0.00 0.00 0.00 36 926.4
20260506094309 13 0 0.0 0.0 0.00 0.00 0.00 35 926.3
20260506092809 13 0 0.0 0.0 0.00 0.00 0.00 35 926.5
20260506091309 13 0 0.0 0.0 0.00 0.00 0.00 34 926.4
20260506085809 13 0 0.0 0.0 0.00 0.00 0.00 34 926.4
20260506084309 15 0 0.0 0.0 0.00 0.00 0.00 33 926.6
20260506082809 15 0 0.0 0.0 0.00 0.00 0.00 33 926.8
20260506081309 15 0 0.0 0.0 0.00 0.00 0.00 32 926.9
20260506072809 15 0 0.0 0.0 0.00 0.00 0.00 33 927.8
20260506071309 13 0 0.0 0.0 0.00 0.00 0.00 34 928.2